S55G-5 Weather Reports


time (UTC)temp
C
wind
direction
speed
KPH
gust
KPH
rain 1hr
cm
rain 24hr
cm
rain mn
cm
humidity
%
barometer
mb
20260502231803 9 45 0.0 3.2 0.00 0.00 0.00 82 1021.7
20260502230903 9 45 0.0 3.2 0.00 0.00 0.00 81 1021.3
20260502230003 10 22 0.0 3.2 0.00 0.00 0.00 82 1021.6
20260502225403 9 4 1.6 3.2 0.00 0.00 0.00 84 1021.7
20260502224503 8 0 0.0 0.0 0.00 0.00 0.00 86 1021.8
20260502223603 9 41 0.0 3.2 0.00 0.00 0.00 85 1021.8
20260502222703 9 2 3.2 3.2 0.00 0.00 0.00 83 1021.8
20260502221803 10 360 1.6 3.2 0.00 0.00 0.00 81 1022.1
20260502220903 10 37 0.0 3.2 0.00 0.00 0.00 82 1022.1
20260502220217 10 64 0.0 3.2 0.00 0.00 0.00 81 1022.0
20260502215617 10 67 1.6 3.2 0.00 0.00 0.00 82 1021.8
20260502214503 10 49 0.0 3.2 0.00 0.00 0.00 82 1022.1
20260502213603 10 360 0.0 3.2 0.00 0.00 0.00 82 1022.2
20260502212917 10 360 0.0 3.2 0.00 0.00 0.00 80 1022.1
20260502211803 10 360 0.0 3.2 0.00 0.00 0.00 80 1021.8
20260502210903 11 346 1.6 3.2 0.00 0.00 0.00 79 1021.8
20260502210217 11 355 0.0 3.2 0.00 0.00 0.00 79 1021.8
20260502205403 11 48 1.6 3.2 0.00 0.00 0.00 78 1022.0
20260502204503 11 0 0.0 0.0 0.00 0.00 0.00 76 1022.0
20260502203603 12 67 0.0 3.2 0.00 0.00 0.00 75 1022.1
20260502202703 11 67 1.6 3.2 0.00 0.00 0.00 75 1021.9
20260502201803 11 7 3.2 3.2 0.00 0.00 0.00 74 1022.0
20260502200903 12 292 0.0 3.2 0.00 0.00 0.00 71 1022.2
20260502200003 12 303 0.0 3.2 0.00 0.00 0.00 72 1021.9
20260502195403 12 346 1.6 3.2 0.00 0.00 0.00 72 1022.1
20260502194503 12 360 0.0 3.2 0.00 0.00 0.00 71 1022.1
20260502193603 13 360 0.0 3.2 0.00 0.00 0.00 69 1022.0
20260502192703 13 45 0.0 3.2 0.00 0.00 0.00 68 1022.1
20260502191803 13 30 1.6 3.2 0.00 0.00 0.00 68 1021.9
20260502190903 14 352 0.0 3.2 0.00 0.00 0.00 69 1021.9
20260502190218 15 360 0.0 3.2 0.00 0.00 0.00 62 1021.9
20260502185403 15 20 0.0 3.2 0.00 0.00 0.00 62 1021.8
20260502184717 14 330 1.6 3.2 0.00 0.00 0.00 68 1021.7
20260502183603 16 293 1.6 3.2 0.00 0.00 0.00 59 1021.7
20260502182703 16 341 1.6 3.2 0.00 0.00 0.00 56 1021.5
20260502181803 17 334 1.6 3.2 0.00 0.00 0.00 56 1021.8
20260502180903 17 353 1.6 3.2 0.00 0.00 0.00 58 1021.3
20260502163603 22 269 6.4 9.7 0.00 0.00 0.00 40 1021.5
20260502162703 23 265 3.2 6.4 0.00 0.00 0.00 39 1021.6
20260502161803 23 267 3.2 6.4 0.00 0.00 0.00 39 1021.7
20260502160903 23 271 3.2 11.3 0.00 0.00 0.00 40 1021.8
20260502151803 24 248 4.8 14.5 0.00 0.00 0.00 37 1021.9
20260502150903 24 252 6.4 14.5 0.00 0.00 0.00 39 1022.0
20260502123603 24 272 3.2 17.7 0.00 0.00 0.00 34 1023.2
20260502122703 25 265 4.8 17.7 0.00 0.00 0.00 35 1023.4
20260502121803 24 269 3.2 20.9 0.00 0.00 0.00 35 1023.4
20260502121118 24 266 6.4 22.5 0.00 0.00 0.00 35 1023.5
20260502115403 25 265 4.8 22.5 0.00 0.00 0.00 35 1023.7
20260502114503 23 284 8.0 22.5 0.00 0.00 0.00 34 1023.7
20260502113603 24 262 6.4 17.7 0.00 0.00 0.00 33 1023.8
20260502112703 24 272 6.4 17.7 0.00 0.00 0.00 35 1023.9
20260502111803 24 265 4.8 12.9 0.00 0.00 0.00 33 1024.1
20260502111118 23 274 8.0 12.9 0.00 0.00 0.00 34 1024.2
20260502110217 24 262 3.2 20.9 0.00 0.00 0.00 35 1024.3
20260502105619 23 273 6.4 20.9 0.00 0.00 0.00 35 1024.2
20260502104718 24 256 4.8 11.3 0.00 0.00 0.00 35 1024.3
20260502103603 23 272 4.8 12.9 0.00 0.00 0.00 34 1024.7
20260502102703 23 262 4.8 17.7 0.00 0.00 0.00 35 1024.6
20260502100903 23 281 4.8 17.7 0.00 0.00 0.00 36 1024.9
20260502090903 22 256 6.4 6.4 0.00 0.00 0.00 35 1025.3
20260502070903 16 91 1.6 3.2 0.00 0.00 0.00 58 1026.2
20260502070003 16 93 0.0 3.2 0.00 0.00 0.00 59 1026.5
20260502065617 16 100 1.6 3.2 0.00 0.00 0.00 58 1026.3
20260502064503 15 96 3.2 3.2 0.00 0.00 0.00 60 1026.4
20260502063603 14 100 1.6 3.2 0.00 0.00 0.00 63 1026.5
20260502062703 13 129 1.6 3.2 0.00 0.00 0.00 67 1026.5
20260502061803 12 135 3.2 3.2 0.00 0.00 0.00 70 1026.6
20260502061118 12 115 1.6 3.2 0.00 0.00 0.00 68 1026.6
20260502060004 11 93 1.6 3.2 0.00 0.00 0.00 73 1026.8
20260502055403 11 83 1.6 3.2 0.00 0.00 0.00 72 1026.4
20260502054503 10 133 1.6 3.2 0.00 0.00 0.00 74 1026.5
20260502053603 10 157 0.0 3.2 0.00 0.00 0.00 77 1026.7
20260502052703 10 0 0.0 0.0 0.00 0.00 0.00 79 1026.6
20260502051803 8 135 0.0 3.2 0.00 0.00 0.00 81 1026.7
20260502050903 7 135 0.0 3.2 0.00 0.00 0.00 82 1026.8
20260502050003 7 121 0.0 3.2 0.00 0.00 0.00 84 1026.6
20260502045403 7 99 0.0 3.2 0.00 0.00 0.00 86 1026.7
20260502044718 6 35 0.0 3.2 0.00 0.00 0.00 88 1026.7
20260502043603 5 0 0.0 0.0 0.00 0.00 0.00 91 1026.6
20260502042703 5 45 0.0 3.2 0.00 0.00 0.00 91 1026.7
20260502042018 5 56 0.0 3.2 0.00 0.00 0.00 91 1026.7
20260502040903 5 58 0.0 3.2 0.00 0.00 0.00 90 1026.6
20260502040003 5 280 1.6 3.2 0.00 0.00 0.00 89 1026.7
20260502035403 6 286 0.0 3.2 0.00 0.00 0.00 88 1026.5
20260502034717 6 295 0.0 3.2 0.00 0.00 0.00 89 1026.8
20260502033603 5 347 1.6 3.2 0.00 0.00 0.00 89 1026.5
20260502032703 5 87 1.6 3.2 0.00 0.00 0.00 89 1026.5
20260502031803 5 0 0.0 0.0 0.00 0.00 0.00 90 1026.5
20260502030904 5 90 0.0 3.2 0.00 0.00 0.00 90 1026.5
20260502030003 5 90 0.0 3.2 0.00 0.00 0.00 90 1026.6
20260502025403 5 90 0.0 3.2 0.00 0.00 0.00 90 1026.8
20260502024503 5 0 0.0 0.0 0.00 0.00 0.00 90 1026.8
20260502023603 6 0 0.0 0.0 0.00 0.00 0.00 90 1027.0
20260502022703 5 90 0.0 3.2 0.00 0.00 0.00 90 1026.7
20260502021803 5 90 0.0 3.2 0.00 0.00 0.00 89 1026.8
20260502020903 5 60 0.0 3.2 0.00 0.00 0.00 89 1026.7
20260502020003 6 44 1.6 3.2 0.00 0.00 0.00 88 1026.6
20260502015403 6 344 3.2 3.2 0.00 0.00 0.00 87 1026.6
20260502014503 6 297 1.6 6.4 0.00 0.00 0.00 88 1026.6
20260502013603 6 28 1.6 3.2 0.00 0.00 0.00 88 1026.6
20260502012703 6 67 0.0 3.2 0.00 0.00 0.00 87 1026.8
20260502012018 6 67 0.0 3.2 0.00 0.00 0.00 87 1026.8
20260502011118 6 67 0.0 3.2 0.00 0.00 0.00 89 1026.9
20260502010003 6 53 1.6 3.2 0.00 0.00 0.00 89 1027.0
20260502005403 6 42 0.0 3.2 0.00 0.00 0.00 88 1027.1
20260502004718 6 12 0.0 3.2 0.00 0.00 0.00 87 1027.0
20260502003603 6 315 0.0 3.2 0.00 0.00 0.00 85 1027.0
20260502002703 6 309 0.0 3.2 0.00 0.00 0.00 85 1027.3
20260502002018 7 322 0.0 3.2 0.00 0.00 0.00 84 1027.2
20260502000903 7 22 0.0 3.2 0.00 0.00 0.00 83 1027.1
20260502000004 7 317 0.0 3.2 0.00 0.00 0.00 83 1027.3
20260501235403 7 56 1.6 3.2 0.00 0.00 0.00 82 1027.4
20260501234718 7 57 1.6 3.2 0.00 0.00 0.00 82 1027.0
20260501233603 7 51 3.2 3.2 0.00 0.00 0.00 82 1027.2
20260501232703 7 337 0.0 3.2 0.00 0.00 0.00 80 1027.3